Regional Weather Roundup
Issued by NWS

Home | Current Version | Previous Version | Text Only | Print | Product List | Glossary On
Versions: 1 2 3 4 5 6 7 8 9 10 11 12 13 14 15 16 17 18 19 20 21 22 23 24 25 26 27 28 29 30 31 32 33 34 35 36 37 38 39 40 41 42 43 44 45
000
ASUS44 KBMX 191610
RWRAL

ALABAMA REGIONAL WEATHER ROUNDUP
NATIONAL WEATHER SERVICE BIRMINGHAM AL
1100 AM CDT FRI SEP 19 2014

NOTE: "FAIR" INDICATES FEW OR NO CLOUDS BELOW 12,000 FEET
WITH NO SIGNIFICANT WEATHER AND/OR OBSTRUCTIONS TO VISIBILITY.

THE REMARK "TC" DENOTES TEMPERATURE IN DEGREES CELSIUS.

ALZ001>011-014-016>018-020-191700-
NORTH ALABAMA

CITY           SKY/WX    TMP DP  RH WIND       PRES   REMARKS
MUSCLE SHOALS  SUNNY     79  65  62 CALM      30.07S
HUNTSVILLE     MOSUNNY   81  63  54 E5        30.06S
DECATUR        SUNNY     81  61  50 SE7       30.06F
HALEYVILLE     FAIR      80  65  60 VRB3      30.09S
GADSDEN        MOSUNNY   79  63  57 E7        30.07F
$$

ALZ012-013-022-023-030>036-040>044-191700-
WEST CENTRAL ALABAMA

CITY           SKY/WX    TMP DP  RH WIND       PRES   REMARKS
TUSCALOOSA     SUNNY     83  65  54 E3        30.03S
$$

ALZ015-024>027-033>036-040>044-191700-
CENTRAL ALABAMA

CITY           SKY/WX    TMP DP  RH WIND       PRES   REMARKS
BIRMINGHAM     PTSUNNY   81  64  56 E8        30.07S
MONTGOMERY     SUNNY     86  66  51 E7        30.02S
SHELBY CO ARPT SUNNY     82  68  62 SE5       30.05S
MAXWELL AFB    SUNNY     85  67  55 E7        30.03R
GREENVILLE     FAIR      84  67  56 E8        30.02S
$$

ALZ019-021-028-029-037-038-045>048-191700-
EAST CENTRAL ALABAMA

CITY           SKY/WX    TMP DP  RH WIND       PRES   REMARKS
ANNISTON       MOSUNNY   82  68  62 E8        30.06F
ALEXANDER CITY SUNNY     82  67  61 E6        30.06S
AUBURN         SUNNY     81  63  54 E10       30.09S
$$

ALZ051>064-191700-
SOUTHWEST ALABAMA

CITY           SKY/WX    TMP DP  RH WIND       PRES   REMARKS
MOBILE         PTSUNNY   79  71  76 VRB5      30.00S
BROOKLEY FIELD PTSUNNY   79  72  79 SE3       30.01R
EVERGREEN      SUNNY     86  65  49 E9        30.01S
$$

ALZ049-050-065>069-191700-
SOUTHEAST ALABAMA

CITY           SKY/WX    TMP DP  RH WIND       PRES   REMARKS
DOTHAN         MOSUNNY   81  71  71 E7        30.05S
OZARK          MOSUNNY   83  69  64 NE10      30.02S
TROY           SUNNY     85  64  49 E9        30.03S
EUFAULA        FAIR      87  68  52 E8        30.02S HX  90
$$


USA.gov is the U.S. government's official web portal to all federal, state and local government web resources and services.